RH
48 45 46 44 42 42 44 44 43 46 47 50 50 50 54 67 68 72 74 73 59 58 58 50 44 46 42 40 43 33 25 24 22 20 18 18 18 19 20 18 19 19 18
65 56 49 49 45 45 45 46 46 46 46 48 52 53 64 69 72 77 79 70 68 66 62 55 46 43 44 42 44 32 26 24 22 20 18 19 20 20 21 21 20 21 20
78 68 62 50 52 53 50 47 46 46 47 52 58 60 68 73 79 81 78 77 78 66 65 57 50 47 46 46 44 31 27 24 22 21 17 19 20 21 21 22 24 22 22
94 80 69 71 65 55 54 53 50 51 52 56 63 66 75 80 84 83 78 79 78 74 64 55 51 46 48 47 36 29 24 24 25 21 18 19 19 21 22 23 23 25 24
100 100 90 79 77 76 76 64 59 58 57 60 69 79 92 93 88 75 77 77 76 76 62 60 55 50 49 49 42 32 24 26 27 23 20 19 19 20 22 24 24 24 26
100 100 100 99 92 88 93 92 93 88 79 82 97 100 100 96 86 86 84 84 73 67 51 65 63 54 48 37 27 26 28 28 23 20 20 20 20 21 22 24 26 26 27
100 100 100 100 100 100 100 100 100 100 100 100 100 100 97 95 89 95 93 85 75 62 57 65 70 60 47 31 29 30 29 25 22 22 22 22 23 23 24 26 27 28 28
100 100 100 100 100 100 100 100 100 100 100 100 100 92 100 100 95 88 75 92 84 67 58 70 84 71 50 47 38 31 28 27 25 26 26 25 25 26 27 28 30 32 30
100 100 100 100 100 100 100 100 100 100 100 100 100 100 100 100 98 92 85 83 94 73 66 91 92 79 63 48 36 28 25 26 29 30 28 27 27 28 29 29 31 33 35
100 100 100 100 100 100 100 100 100 100 100 100 100 100 100 100 100 84 86 97 89 75 76 100 100 84 71 53 40 32 29 30 33 30 29 30 30 31 32 33 33 32 34
100 100 100 100 100 100 100 100 100 100 100 100 100 100 100 100 98 92 92 94 85 87 94 100 100 88 85 77 71 58 49 37 32 32 30 30 31 33 35 37 36 36 36
100 100 100 100 97 100 100 100 100 100 100 100 100 100 100 100 97 85 71 79 73 94 95 100 100 99 91 86 78 64 54 50 41 38 36 34 37 38 37 35 37 37 40
100 100 100 94 96 99 100 100 100 100 100 100 100 100 100 98 94 70 73 61 93 87 95 95 89 80 76 72 64 61 59 54 47 42 34 32 30 32 34 39 41 42 42
100 100 100 100 100 100 100 100 100 100 100 100 100 100 100 100 87 76 72 73 89 100 100 100 100 92 87 78 71 62 57 49 41 35 31 28 27 29 33 36 37 38 42
100 100 100 100 100 100 100 100 100 100 100 100 100 100 100 89 82 69 68 79 96 100 100 100 100 100 97 83 68 56 48 42 37 34 32 31 32 32 32 32 33 36 40
100 100 100 100 100 100 100 100 100 100 100 94 100 100 98 91 62 58 72 89 100 100 100 100 100 100 92 74 60 51 45 39 34 33 33 33 33 32 30 31 30 30 29
100 100 100 100 100 100 100 100 100 100 90 88 100 96 100 91 70 73 99 100 100 100 95 100 92 88 77 66 55 48 41 37 35 34 35 32 28 27 27 26 26 28 29
100 100 100 100 100 100 100 100 100 97 100 100 100 79 70 92 98 100 100 100 100 98 96 93 83 78 68 57 52 42 37 34 34 34 31 26 29 27 26 28 28 30 23
100 100 100 100 100 100 100 100 100 100 93 97 86 81 81 96 100 100 97 97 94 93 89 74 74 67 58 50 40 37 34 33 31 26 24 21 22 24 27 22 14 13 12
95 100 100 100 100 100 100 100 100 97 85 89 100 99 100 100 100 95 90 99 95 89 80 66 58 50 42 37 36 36 36 28 27 22 20 23 26 18 12 11 10 10 8
92 100 100 100 100 100 100 100 100 100 98 88 85 95 94 100 96 99 100 96 94 87 69 57 47 42 39 39 38 34 29 26 23 21 24 26 15 12 10 8 6 5 5
100 98 86 96 100 100 100 100 100 100 93 100 100 100 100 100 100 100 88 90 79 69 59 49 43 45 41 37 34 33 26 20 21 24 16 12 10 9 8 6 5 5 5
100 100 100 100 99 94 93 92 100 99 98 100 100 97 100 99 90 83 82 73 68 63 52 46 44 40 40 37 34 24 18 22 21 13 11 12 9 7 6 6 5 5 4
100 100 94 100 100 94 81 92 100 100 94 92 92 92 91 90 81 76 73 65 62 51 47 46 42 42 37 31 20 19 22 22 14 12 10 10 6 6 6 5 4 5 5
100 100 100 100 100 95 90 94 90 76 79 82 83 92 90 82 79 65 64 60 53 49 46 44 46 44 36 22 20 22 16 14 13 10 9 6 6 6 5 5 6 6 7
94 88 87 94 95 87 81 78 78 75 82 80 70 82 86 74 63 64 57 51 48 45 45 49 49 34 21 22 22 15 14 12 11 9 7 6 6 5 6 6 7 6 4
Wind_Speed
47 43 42 40 38 36 35 34 32 32 32 34 35 37 37 39 42 43 45 47 48 49 51 53 56 56 56 51 42 41 42 45 48 50 50 49 48 48 46 46 45 47 43
53 50 47 44 42 41 40 38 37 36 36 38 39 41 40 42 44 45 46 48 48 50 52 54 55 56 56 50 43 41 44 47 49 51 52 52 50 49 48 47 46 47 47
58 55 53 50 47 45 44 43 42 42 41 41 43 44 44 46 46 47 48 48 49 51 54 56 56 57 55 48 44 44 47 49 51 53 53 54 53 52 51 49 48 48 48
62 60 57 55 53 50 48 47 46 46 46 46 47 48 48 49 48 49 50 49 51 53 55 58 58 57 53 47 44 46 49 51 53 55 57 57 56 55 53 52 51 48 47
64 63 60 58 55 54 53 51 50 50 50 50 51 51 50 50 51 52 51 52 53 55 59 61 59 57 53 48 47 49 51 53 55 57 59 60 61 59 57 55 54 52 50
65 64 61 58 55 54 52 53 53 52 52 54 53 49 49 51 52 52 53 54 56 58 61 62 59 58 53 50 51 53 54 56 58 59 60 62 64 63 62 60 58 58 54
67 67 64 60 57 55 53 52 51 50 48 48 48 50 52 52 52 53 56 57 59 60 62 63 60 59 55 54 56 58 59 61 61 62 64 66 67 68 66 65 63 61 60
64 67 66 63 60 58 56 54 54 53 52 47 51 53 52 54 55 56 59 59 61 63 64 65 61 60 59 60 61 62 63 63 64 65 67 70 71 72 71 69 67 66 66
65 65 65 64 63 61 59 58 57 55 54 48 53 53 53 56 58 59 61 64 64 66 66 65 63 63 63 64 64 64 65 67 70 71 73 75 76 76 76 75 73 71 70
65 63 62 63 63 63 61 59 58 56 55 52 54 55 57 59 60 63 66 67 68 69 68 68 65 65 65 66 67 69 70 73 74 76 79 80 80 81 81 81 79 77 76
69 69 65 63 62 63 61 61 60 58 57 57 58 62 58 58 63 67 70 71 71 70 70 71 70 70 70 70 73 76 78 78 80 82 85 87 86 86 86 86 86 84 84
69 69 67 64 63 64 64 63 63 60 60 59 61 63 63 63 66 72 72 74 73 69 73 73 73 74 73 74 76 79 80 82 84 87 90 91 91 92 93 94 93 92 91
67 68 65 64 63 64 65 65 65 63 63 64 64 62 65 68 70 74 73 74 72 76 78 78 78 78 80 82 82 84 86 87 91 93 95 96 98 99 99 98 99 99 98
66 67 69 69 67 64 64 65 65 64 64 65 66 63 67 69 72 75 75 72 75 78 82 83 85 85 87 88 90 91 93 95 99 102 105 107 108 107 106 107 107 106 104
73 69 68 69 69 67 67 66 66 65 61 61 61 65 70 74 74 75 73 74 76 78 84 87 89 92 94 96 97 99 101 103 106 108 110 113 113 113 114 114 113 112 112
74 71 68 68 68 67 66 66 65 65 67 67 68 68 70 73 75 75 75 78 81 83 86 89 93 96 98 100 104 106 109 111 113 116 117 118 118 119 121 120 117 109 108
71 70 68 68 67 68 65 65 62 62 67 69 66 69 74 81 81 79 78 82 87 89 91 95 98 100 102 104 106 109 113 116 120 122 124 124 127 127 125 118 114 113 112
72 68 66 67 69 68 65 63 66 68 64 67 72 78 77 81 81 82 85 89 92 96 98 99 102 105 108 110 113 116 119 122 124 126 128 131 132 129 124 125 122 118 109
66 64 65 66 67 65 63 66 68 70 73 74 79 80 79 83 82 87 90 94 98 101 104 105 108 111 114 117 120 123 127 129 130 134 133 127 123 126 127 119 106 102 99
80 68 66 67 68 67 70 70 72 75 78 78 80 82 83 85 89 92 96 100 103 105 108 110 113 117 120 124 127 129 130 134 136 134 125 127 129 120 110 104 98 94 92
71 76 74 73 74 76 74 73 75 80 81 81 81 83 86 89 94 97 101 105 106 110 112 115 120 123 126 128 130 132 134 136 133 131 129 130 118 108 105 99 93 87 82
62 73 76 73 72 71 72 74 77 81 80 81 85 88 91 95 98 101 104 107 110 113 117 121 125 127 130 131 133 136 138 131 135 136 118 113 106 103 99 94 85 79 74
74 74 74 74 75 77 78 78 78 80 82 86 90 92 94 96 100 104 106 110 115 118 123 126 128 130 131 135 137 135 132 137 134 119 111 112 103 98 91 85 80 74 68
73 75 74 76 80 82 81 80 83 87 90 89 92 95 97 99 104 106 110 114 119 123 126 127 128 130 135 137 136 137 138 133 123 115 105 103 97 89 83 77 70 65 61
72 72 73 79 82 84 84 85 88 90 90 93 95 96 100 103 107 110 114 118 121 122 124 126 127 131 135 137 139 140 130 122 118 109 102 93 85 82 74 67 61 58 55
71 74 77 80 83 84 84 85 89 90 91 94 98 100 102 108 112 116 117 118 119 120 121 121 127 134 138 139 140 130 123 115 108 104 94 86 78 71 66 60 56 52 50
Wind_Direction
256 256 255 256 256 256 259 264 267 271 276 280 284 288 294 298 301 303 304 306 308 311 315 320 325 325 325 324 317 317 321 324 328 330 331 331 331 334 337 339 340 342 335
255 256 257 257 259 260 263 264 269 273 279 283 287 290 294 296 299 300 303 305 308 311 315 321 324 323 324 320 315 315 318 322 326 329 330 330 329 328 331 335 334 337 339
254 255 257 258 259 260 264 267 270 274 278 281 285 289 291 295 297 298 301 304 306 309 314 319 322 322 322 317 312 313 316 320 324 327 330 330 330 327 326 327 330 332 335
253 255 255 257 259 262 264 267 271 274 278 282 284 288 290 293 296 298 300 302 305 310 313 317 319 319 318 314 309 311 314 318 321 324 326 328 328 327 324 323 325 328 330
252 254 257 258 261 262 264 268 271 273 276 280 282 286 289 292 295 297 300 301 305 310 314 315 317 316 315 310 307 309 313 316 318 320 322 325 326 325 325 322 321 323 326
248 253 256 258 261 264 267 269 271 275 278 280 282 285 288 291 295 296 298 301 305 310 313 315 313 313 312 308 308 309 311 314 316 318 321 323 324 323 322 322 320 321 321
248 251 253 256 258 262 266 270 274 277 280 281 282 285 290 291 293 295 297 300 305 308 311 313 309 310 308 306 307 309 310 312 315 317 319 320 321 321 320 319 319 319 318
247 249 251 254 257 260 263 267 271 275 279 282 284 289 290 292 294 296 297 299 303 306 309 309 305 306 304 306 307 307 308 310 313 315 316 318 318 318 318 316 316 315 315
247 248 251 253 256 259 262 266 270 274 279 279 283 284 288 290 292 294 296 298 302 306 307 305 301 302 303 305 307 307 308 310 312 314 315 315 315 315 314 314 314 312 311
245 248 250 252 255 259 262 266 269 273 277 279 279 282 288 289 289 293 295 298 300 303 304 301 299 299 301 303 305 306 308 309 311 313 313 312 312 311 311 311 311 310 309
244 247 252 253 255 258 262 265 268 271 275 276 278 283 286 285 288 292 295 298 300 301 300 299 298 298 299 302 303 305 307 309 310 311 311 311 310 309 309 308 308 307 306
241 246 250 254 256 258 261 265 267 270 273 275 277 280 282 284 288 292 294 297 300 299 298 296 297 297 300 301 302 303 305 306 308 308 309 309 308 307 307 306 305 304 303
239 245 250 253 257 259 260 264 267 268 272 275 275 277 282 285 289 290 294 298 299 300 297 298 297 299 300 301 303 304 305 305 305 305 306 306 306 305 305 303 302 301 300
240 244 248 252 255 257 260 263 266 270 272 273 276 278 282 285 287 291 293 296 299 298 299 299 300 302 303 304 304 305 305 306 306 307 307 307 306 305 304 302 301 300 299
240 244 246 249 251 256 260 262 266 269 271 275 278 278 277 283 287 289 292 295 297 296 299 301 302 304 304 305 305 306 306 306 306 306 306 305 303 303 302 300 300 299 298
239 240 244 247 252 255 259 262 265 268 271 274 276 277 281 283 288 290 293 296 295 295 295 298 300 302 303 304 306 306 306 306 305 305 304 303 302 301 300 300 301 299 298
235 239 243 248 252 255 257 260 263 266 269 272 271 275 284 283 287 291 292 294 294 294 296 297 299 300 301 301 302 303 304 304 304 303 303 302 301 301 302 302 301 299 297
242 244 246 248 251 254 258 261 261 268 268 268 274 279 283 281 284 291 292 292 293 294 296 297 299 300 300 301 301 302 303 303 304 303 302 302 304 305 305 304 301 297 291
236 243 245 248 251 254 257 262 264 267 270 276 278 280 281 282 285 288 292 292 293 295 296 299 299 300 301 302 303 304 304 304 304 303 305 307 308 307 304 300 295 291 288
235 241 244 246 248 254 260 264 266 270 273 276 276 279 281 281 285 289 292 293 294 295 298 300 301 301 302 303 304 304 304 304 305 307 311 311 308 304 301 296 294 292 290
238 242 243 247 255 259 261 264 268 270 272 276 278 279 282 284 286 290 291 293 294 296 298 300 301 302 303 303 304 304 304 306 308 310 312 309 305 304 301 301 297 293 291
238 242 248 252 254 257 261 264 266 269 272 277 281 281 283 286 288 289 291 293 295 297 299 300 302 303 303 304 304 304 306 310 310 313 311 309 307 306 304 301 299 297 294
244 249 251 253 256 259 262 264 264 268 273 278 281 283 285 286 288 290 292 294 297 298 300 302 303 303 304 304 304 306 312 315 315 312 313 309 308 306 305 303 301 299 294
242 248 254 254 256 261 265 265 266 271 276 280 281 283 286 288 290 292 294 297 298 301 303 303 303 304 304 305 308 314 316 315 313 313 312 310 309 308 306 304 302 299 295
245 248 251 255 259 262 264 267 270 274 278 279 281 285 287 289 292 294 296 298 300 301 302 303 304 303 303 306 313 315 315 314 313 311 311 310 309 307 306 304 302 299 296
246 249 252 255 260 263 267 270 271 274 278 280 282 284 287 291 293 295 298 299 300 301 302 302 301 302 306 312 314 315 315 313 312 312 312 311 310 308 306 305 303 300 297